Wind_Speed
46 47 49 50 52 53 54 54 55 57 58 60 61 63 64 66 67 68 70 71 72 73 74 74 74 74 74 73 72 71 71 71 71 71 71 72 72 73 72 72 71 71
49 50 51 52 54 55 56 57 58 59 61 62 63 64 65 66 67 68 69 70 70 71 71 71 71 71 70 70 69 69 69 70 70 71 72 72 73 73 72 71 71 71
51 52 53 55 56 57 58 59 61 62 63 63 64 65 66 67 68 69 69 70 70 70 70 70 69 68 68 68 68 69 69 70 71 72 72 72 72 72 71 71 72 72
54 56 57 59 60 60 61 62 63 64 64 65 66 67 67 68 69 69 70 70 70 69 68 67 66 67 67 68 69 70 70 71 71 71 71 71 71 71 71 72 73 74
59 61 62 63 63 63 63 64 64 65 65 66 67 67 68 68 69 69 69 69 68 67 66 66 66 67 68 69 70 70 70 71 71 70 70 70 70 71 71 72 73 74
63 64 65 65 65 64 65 64 64 65 66 67 67 68 68 68 68 68 68 68 67 66 66 66 67 68 69 69 70 70 70 70 70 69 69 69 70 70 71 72 74 75
66 66 66 65 65 65 64 64 65 66 67 67 68 68 68 68 68 68 67 67 67 66 67 68 69 69 69 69 69 69 69 68 68 68 68 68 69 70 72 73 75 77
67 66 65 65 64 64 64 64 65 66 67 68 68 68 67 67 67 67 67 67 67 68 68 69 69 69 69 68 68 67 67 66 66 67 67 68 69 71 73 75 77 78
65 64 64 64 63 63 64 65 66 67 67 68 67 67 66 66 67 67 68 68 68 68 68 68 68 67 67 66 66 65 64 65 65 67 67 68 70 72 75 77 78 80
62 63 63 62 62 63 66 67 67 67 67 66 66 65 66 66 67 68 68 68 68 67 66 66 65 65 65 64 63 63 63 64 66 67 68 70 71 73 76 78 79 80
62 63 63 62 63 66 68 68 67 67 66 65 65 65 66 67 68 68 68 67 66 64 64 63 63 63 63 62 62 63 64 65 67 68 70 72 73 74 77 79 80 81
63 63 64 65 67 68 69 68 66 65 65 65 65 65 66 67 67 66 65 64 63 62 61 61 62 62 62 62 63 64 65 66 68 70 72 73 74 75 77 79 81 82
62 64 66 68 69 68 67 65 64 64 64 64 65 65 65 65 64 63 62 62 61 60 60 60 61 62 62 63 64 65 67 68 69 71 73 75 76 76 78 80 82 83
65 67 67 68 67 65 63 62 62 62 63 63 63 63 62 61 61 61 61 60 60 60 60 61 62 63 64 65 66 67 69 70 71 73 75 76 77 78 79 81 83 84
67 67 65 65 63 62 61 61 62 62 62 61 60 60 59 59 60 60 60 60 60 60 61 62 63 64 66 67 68 69 70 72 73 74 76 77 78 79 81 83 84 84
64 62 61 60 60 60 61 62 61 61 59 58 58 58 58 59 59 60 61 61 61 62 62 63 65 66 67 69 70 71 72 73 74 76 77 78 80 81 83 85 85 84
59 58 58 59 60 61 61 60 59 58 57 57 57 57 58 59 60 61 61 62 63 63 64 65 66 67 69 70 71 72 73 74 75 77 78 79 81 83 85 86 85 84
58 58 59 60 61 60 58 57 56 56 56 56 57 58 59 60 61 61 62 63 64 65 66 67 68 69 70 71 71 72 74 75 76 77 78 80 82 84 86 86 85 83
58 60 60 60 59 57 56 56 56 56 57 57 58 59 59 60 61 62 63 65 65 66 67 68 69 70 70 71 72 73 74 75 76 78 79 81 83 85 86 85 83 82
59 59 58 57 56 56 56 56 56 57 58 58 59 59 60 61 63 64 65 66 67 68 68 69 69 70 71 72 73 74 75 75 76 78 80 82 84 85 85 83 82 81
57 56 55 55 56 56 56 57 57 58 58 59 59 60 61 63 64 65 66 67 68 68 69 69 69 70 71 72 73 74 75 76 77 79 81 83 85 84 82 81 80 80
55 55 55 56 56 57 57 57 57 58 59 60 60 61 62 63 64 65 66 67 68 68 68 69 69 70 71 72 73 74 75 76 78 80 82 83 83 81 80 79 79 80
55 56 56 56 56 56 57 57 58 58 59 60 61 62 63 64 65 66 67 68 68 69 68 69 69 70 71 72 72 74 75 77 79 81 82 81 80 78 78 78 78 78
55 55 55 55 56 56 57 58 58 59 60 61 62 63 64 65 66 67 68 69 69 69 68 69 69 70 71 72 73 74 76 78 80 81 80 78 77 76 76 77 76 75
54 54 54 55 55 56 57 58 59 60 61 62 63 64 65 65 66 67 69 70 69 69 68 69 70 71 71 72 74 75 77 79 79 78 77 75 75 75 75 75 74 73
53 53 53 55 56 57 59 60 61 61 62 63 64 65 65 66 67 68 70 71 70 69 69 69 70 71 72 73 75 77 78 79 78 76 74 74 74 73 73 73 73 73
Wind_Direction
281 282 283 284 285 286 286 286 286 287 287 287 287 288 288 288 289 289 290 290 291 292 292 293 295 296 297 299 301 303 304 306 307 307 307 307 306 306 306 306 306 305
282 284 285 286 287 287 287 287 288 289 290 291 291 291 291 292 292 293 293 294 295 295 297 298 299 301 302 304 305 306 307 307 307 307 307 306 306 306 306 306 306 305
285 287 288 289 289 289 289 290 291 293 293 294 294 295 295 296 296 297 298 298 299 300 302 303 304 305 306 307 307 307 307 307 307 306 306 306 306 306 306 306 305 305
287 288 290 291 291 291 292 294 295 296 296 297 297 298 299 300 300 301 301 302 303 304 305 306 306 307 307 307 307 307 306 306 306 305 306 306 306 306 306 306 305 305
289 290 292 293 293 294 295 297 298 298 299 300 300 301 302 303 303 303 303 304 305 306 306 306 306 306 306 306 306 306 305 305 305 306 306 306 306 306 306 306 306 306
290 292 293 294 295 295 297 298 299 300 301 302 302 303 304 304 304 304 304 304 305 305 305 305 305 305 305 305 305 305 305 306 306 306 306 306 306 306 306 306 307 307
291 292 294 294 295 296 298 299 300 302 302 302 303 303 303 302 302 302 302 303 304 304 304 305 305 304 304 304 305 305 306 306 306 306 306 306 307 307 307 307 308 308
291 291 292 293 295 296 297 299 301 302 302 302 302 302 301 301 301 301 301 302 303 304 304 304 304 304 304 305 305 306 306 306 306 306 306 307 307 308 308 308 309 309
289 290 291 293 294 296 298 300 301 301 301 301 301 300 300 299 300 300 301 302 303 304 304 304 304 304 304 305 306 306 306 306 306 306 307 308 308 308 309 309 310 310
287 289 292 293 294 296 298 299 300 300 300 300 299 299 298 299 300 300 301 302 303 303 304 304 304 304 305 305 306 306 306 306 307 307 308 308 309 309 309 310 311 311
287 290 292 292 294 295 297 298 298 299 299 299 298 298 298 299 300 301 302 302 303 304 304 304 304 305 305 305 306 306 306 307 308 308 308 309 310 310 311 311 312 313
288 290 291 292 294 295 296 297 297 298 298 297 298 298 299 300 300 301 302 303 303 304 304 304 304 304 305 305 306 306 307 308 309 309 309 310 311 312 312 313 314 314
287 290 291 293 294 295 296 296 297 297 297 297 298 299 299 300 300 301 302 303 303 304 303 304 304 304 305 306 307 308 309 309 310 310 311 312 312 313 313 314 315 315
288 291 292 293 294 295 295 296 296 297 297 298 298 299 299 300 300 301 302 303 303 303 303 304 304 305 306 307 308 309 310 310 311 311 312 312 313 314 314 315 316 316
290 292 292 293 294 294 295 296 297 298 298 298 298 299 299 300 300 301 302 302 302 303 304 304 305 307 308 308 309 310 311 311 312 312 312 313 314 315 316 316 317 316
291 292 292 293 294 295 296 297 297 297 297 298 298 299 299 300 300 301 302 302 303 304 305 306 307 308 308 309 310 311 311 311 312 312 313 314 314 315 316 317 317 316
291 292 293 294 295 295 296 296 296 296 297 298 298 298 299 300 300 301 302 303 304 305 306 307 307 308 309 310 311 311 311 311 312 313 313 314 315 316 317 317 316 316
291 291 292 293 294 295 295 295 296 296 297 298 298 299 300 300 301 302 303 304 305 306 306 307 308 309 310 310 310 310 311 312 312 313 314 315 316 316 317 317 316 315
290 291 292 293 293 294 294 295 296 296 297 298 298 299 300 301 302 303 304 305 306 306 307 308 309 309 310 310 310 310 311 312 313 313 314 315 316 317 316 316 315 314
290 291 292 292 292 293 294 295 295 296 297 298 299 300 301 302 303 304 304 305 306 306 307 308 309 309 309 309 310 311 311 312 313 313 314 315 316 316 315 314 314 314
290 290 291 291 292 293 294 295 296 297 297 298 300 300 301 302 303 304 305 305 306 307 308 309 309 309 309 309 310 311 311 312 313 314 315 315 316 315 314 314 314 314
289 289 290 292 293 294 295 296 297 297 298 299 300 301 302 303 304 305 305 305 306 307 309 309 309 309 309 309 310 310 311 312 313 314 315 315 315 314 314 314 314 314
289 290 291 293 294 295 296 297 298 299 300 301 302 302 303 304 304 305 305 306 307 308 309 309 309 308 309 309 310 311 312 313 314 314 314 314 314 314 314 314 314 314
290 291 293 294 295 296 297 298 299 300 301 302 302 303 303 303 304 305 305 306 307 308 310 309 309 308 309 310 311 311 312 313 313 314 314 314 314 314 313 313 314 315
291 293 295 296 297 298 299 300 301 301 301 302 302 302 303 303 304 304 305 306 307 309 310 309 308 309 310 311 311 312 312 313 313 314 314 314 313 313 313 314 316 318
293 296 298 299 299 300 300 300 300 300 301 301 301 302 303 303 304 304 305 306 308 310 309 309 309 309 310 311 311 311 312 313 314 314 314 314 313 314 315 316 319 321
Height
10711 10710 10709 10708 10706 10705 10704 10703 10700 10697 10695 10693 10690 10688 10686 10683 10681 10678 10676 10673 10671 10668 10666 10663 10659 10656 10652 10648 10643 10639 10635 10630 10626 10622 10618 10614 10609 10605 10602 10599 10595 10591
10706 10705 10704 10702 10701 10699 10698 10696 10693 10691 10688 10685 10683 10680 10678 10676 10673 10671 10668 10666 10663 10660 10658 10654 10650 10646 10642 10638 10634 10630 10626 10622 10618 10614 10610 10606 10601 10598 10595 10591 10587 10583
10699 10698 10697 10696 10694 10692 10690 10688 10686 10683 10681 10678 10675 10673 10671 10668 10665 10663 10660 10657 10654 10652 10649 10645 10641 10637 10633 10629 10626 10622 10619 10615 10611 10607 10603 10599 10594 10590 10587 10583 10579 10575
10693 10692 10690 10688 10687 10685 10683 10680 10678 10675 10673 10670 10668 10665 10663 10660 10657 10654 10651 10648 10646 10643 10640 10636 10632 10628 10625 10622 10619 10616 10612 10608 10604 10600 10596 10591 10587 10583 10579 10575 10570 10566
10687 10685 10684 10682 10680 10678 10676 10674 10671 10668 10666 10663 10660 10658 10655 10651 10648 10645 10642 10640 10638 10635 10632 10629 10625 10622 10619 10616 10612 10609 10605 10601 10597 10593 10588 10584 10579 10575 10571 10567 10562 10558
10680 10679 10677 10676 10674 10672 10670 10667 10665 10662 10659 10656 10653 10650 10647 10644 10641 10638 10635 10633 10631 10629 10626 10623 10619 10616 10613 10609 10606 10602 10598 10594 10589 10585 10581 10576 10571 10567 10563 10559 10555 10550
10673 10672 10671 10670 10668 10666 10664 10661 10659 10656 10653 10650 10647 10644 10641 10638 10635 10632 10630 10627 10625 10623 10620 10616 10613 10609 10606 10602 10599 10595 10591 10586 10582 10578 10574 10569 10564 10559 10555 10551 10547 10542
10667 10666 10665 10664 10662 10660 10658 10655 10653 10650 10647 10644 10641 10638 10635 10632 10629 10626 10624 10622 10619 10617 10613 10610 10606 10602 10599 10595 10592 10588 10584 10579 10574 10570 10566 10562 10557 10552 10546 10542 10538 10533
10662 10661 10660 10658 10657 10654 10651 10649 10647 10644 10641 10638 10635 10632 10629 10626 10623 10620 10617 10615 10613 10610 10606 10603 10599 10595 10592 10589 10585 10581 10577 10573 10568 10563 10559 10555 10550 10544 10538 10534 10529 10524
10656 10655 10654 10652 10650 10648 10645 10644 10642 10638 10635 10632 10629 10626 10623 10620 10616 10613 10611 10608 10606 10603 10599 10596 10592 10589 10585 10582 10578 10574 10570 10566 10561 10556 10551 10548 10543 10537 10530 10525 10520 10514
10650 10649 10648 10647 10645 10642 10640 10638 10636 10633 10629 10626 10623 10620 10616 10613 10610 10607 10604 10602 10599 10596 10593 10589 10585 10582 10579 10575 10571 10567 10563 10559 10555 10549 10544 10540 10536 10530 10523 10516 10511 10505
10645 10643 10642 10640 10638 10636 10634 10632 10629 10626 10623 10620 10617 10614 10610 10607 10603 10600 10597 10595 10592 10589 10586 10582 10579 10575 10572 10569 10565 10561 10556 10552 10548 10542 10536 10532 10528 10523 10516 10509 10502 10496
10639 10638 10636 10634 10631 10629 10627 10625 10623 10620 10617 10614 10611 10607 10603 10600 10596 10593 10591 10588 10585 10583 10579 10576 10572 10569 10565 10562 10558 10554 10549 10545 10540 10534 10528 10523 10519 10515 10509 10501 10494 10487
10633 10632 10630 10627 10625 10623 10621 10619 10616 10613 10610 10607 10604 10600 10597 10593 10590 10587 10584 10582 10579 10576 10573 10570 10566 10562 10559 10555 10550 10546 10542 10537 10533 10527 10521 10516 10511 10506 10500 10494 10486 10478
10626 10626 10624 10621 10618 10616 10614 10612 10610 10607 10603 10600 10597 10594 10591 10587 10584 10581 10578 10575 10573 10570 10567 10563 10559 10556 10552 10547 10543 10539 10534 10529 10525 10520 10514 10508 10502 10497 10491 10484 10478 10470
10620 10619 10617 10614 10612 10610 10608 10606 10603 10600 10597 10594 10591 10588 10585 10581 10578 10575 10572 10569 10566 10563 10560 10556 10552 10549 10545 10540 10536 10531 10526 10522 10517 10512 10507 10500 10494 10488 10482 10475 10469 10462
10614 10612 10610 10608 10606 10604 10602 10599 10596 10593 10591 10588 10585 10582 10579 10576 10572 10569 10566 10563 10560 10557 10553 10550 10546 10542 10538 10533 10529 10524 10519 10514 10509 10504 10498 10492 10486 10480 10473 10467 10460 10453
10608 10606 10604 10602 10600 10598 10595 10593 10590 10587 10585 10582 10579 10576 10573 10569 10566 10563 10559 10556 10553 10550 10546 10543 10539 10535 10530 10526 10521 10517 10512 10507 10502 10496 10490 10484 10478 10472 10465 10458 10451 10444
10601 10599 10597 10595 10593 10591 10589 10587 10584 10581 10579 10576 10573 10570 10566 10563 10559 10556 10552 10549 10546 10543 10539 10536 10532 10528 10523 10518 10514 10509 10504 10500 10494 10488 10482 10476 10470 10464 10457 10450 10443 10437
10595 10593 10591 10589 10587 10585 10583 10581 10578 10575 10572 10570 10567 10563 10560 10556 10553 10549 10546 10542 10539 10536 10532 10529 10525 10520 10516 10511 10507 10502 10497 10492 10487 10481 10474 10468 10462 10456 10449 10442 10436 10429
10589 10587 10585 10583 10581 10580 10577 10575 10572 10569 10566 10563 10560 10557 10553 10550 10546 10543 10539 10535 10532 10529 10526 10522 10518 10513 10509 10504 10500 10495 10490 10485 10480 10474 10467 10461 10454 10448 10441 10435 10428 10422
10583 10581 10580 10578 10576 10574 10571 10568 10566 10563 10559 10557 10554 10550 10547 10543 10539 10536 10532 10529 10525 10523 10519 10516 10511 10506 10502 10498 10493 10488 10483 10477 10472 10466 10460 10454 10447 10440 10434 10427 10421 10415
10577 10576 10574 10572 10570 10567 10565 10562 10559 10556 10553 10550 10547 10544 10540 10536 10533 10529 10526 10522 10519 10516 10513 10509 10504 10499 10495 10491 10486 10481 10475 10470 10464 10459 10453 10447 10440 10433 10427 10421 10415 10408
10571 10570 10568 10566 10564 10561 10559 10556 10553 10550 10547 10543 10540 10537 10533 10530 10526 10522 10519 10515 10512 10510 10506 10502 10497 10492 10488 10483 10479 10473 10468 10463 10457 10452 10446 10440 10433 10427 10421 10414 10408 10402
10565 10564 10562 10560 10557 10555 10552 10549 10546 10543 10540 10537 10533 10530 10526 10523 10520 10516 10512 10509 10506 10503 10499 10494 10489 10485 10480 10476 10471 10466 10461 10456 10450 10445 10439 10432 10426 10420 10414 10408 10402 10396
10560 10558 10556 10554 10551 10548 10546 10543 10540 10537 10534 10530 10527 10523 10520 10516 10513 10509 10505 10502 10500 10497 10492 10487 10482 10477 10473 10469 10464 10459 10454 10448 10443 10437 10431 10425 10419 10413 10407 10401 10395 10390